Location: Unspecified
(0.0000°N, 0.0000°E)
Time: 19:35:01
(UTC+00:00)

Vanguard 1 - Pass Details

Date: 21 April 2026
Orbit: 654 x 3817 km, 34.2° (Epoch: 18 May)

Event Time Altitude Azimuth Distance (km) Brightness Sun altitude
Rises 04:46:16 0° 316° (NW) 7,020 14.1 -17.7°
Reaches altitude 10° 04:52:08 10° 323° (NW) 5,502 13.6 -16.3°
Maximum altitude 05:05:19 39° 26° (NNE) 2,463 12.4 -13.1°
Drops below altitude 10° 05:12:52 10° 93° (E) 3,191 14.1 -11.2°
Sets 05:15:18 0° 101° (ESE) 3,874 14.5 -10.6°
